SR9NLI Weather Reports


Display with metric or nautical units.
time (UTC)temp
F
wind
direction
speed
MPH
gust
MPH
rain 1hr
in
rain 24hr
in
rain mn
in
humidity
%
barometer
mb
20260901085743 67 294 4.0 9.0 0.00 0.00 0.00 100 961.2
20260901085540 67 283 5.0 12.0 0.00 0.00 0.00 100 961.1
20260901085337 69 253 3.0 12.0 0.00 0.00 0.00 100 961.1
20260901085134 68 221 2.0 8.0 0.00 0.00 0.00 100 961.1
20260901084932 68 271 3.0 9.0 0.00 0.00 0.00 100 961.1
20260901084729 66 279 7.0 15.0 0.00 0.00 0.00 100 961.0
20260901084628 66 282 8.0 15.0 0.00 0.00 0.00 100 961.0
20260901084526 66 287 7.0 15.0 0.00 0.00 0.00 100 961.0
20260901084323 66 294 6.0 9.0 0.00 0.00 0.00 100 960.9
20260901084119 67 280 3.0 8.0 0.00 0.00 0.00 100 961.0
20260901084019 67 262 2.0 8.0 0.00 0.00 0.00 100 961.1
20260901083917 66 275 2.0 7.0 0.00 0.00 0.00 100 961.0
20260901083714 66 314 4.0 11.0 0.00 0.00 0.00 100 961.0
20260901083511 66 300 7.0 11.0 0.00 0.00 0.00 100 961.0
20260901083410 66 296 7.0 11.0 0.00 0.00 0.00 100 961.0
20260901083308 65 299 8.0 12.0 0.00 0.00 0.00 100 961.1
20260901083105 65 306 8.0 13.0 0.00 0.00 0.00 100 960.9
20260901082901 65 301 6.0 12.0 0.00 0.00 0.00 100 960.9
20260901082801 65 304 6.0 11.0 0.00 0.00 0.00 100 961.0
20260901082658 65 305 6.0 11.0 0.00 0.00 0.00 100 961.0
20260901082455 64 311 8.0 13.0 0.00 0.00 0.00 100 961.0
20260901082252 64 313 9.0 14.0 0.00 0.00 0.00 100 960.8
20260901082049 65 318 10.0 17.0 0.00 0.00 0.00 100 960.7
20260901081846 65 306 10.0 17.0 0.00 0.00 0.00 100 960.7
20260901081643 65 286 7.0 16.0 0.00 0.00 0.00 100 960.8
20260901081543 66 282 6.0 14.0 0.00 0.00 0.00 100 960.8
20260901081440 66 267 2.0 14.0 0.00 0.00 0.00 100 960.8
20260901081237 67 255 2.0 8.0 0.00 0.00 0.00 100 960.8
20260901081034 66 269 4.0 9.0 0.00 0.00 0.00 100 960.8
20260901080933 65 280 5.0 14.0 0.00 0.00 0.00 100 960.8
20260901080831 65 286 7.0 14.0 0.00 0.00 0.00 100 960.8
20260901080627 65 289 8.0 14.0 0.00 0.00 0.00 100 960.7
20260901080424 65 284 8.0 16.0 0.00 0.00 0.00 100 960.7
20260901080323 65 277 7.0 16.0 0.00 0.00 0.00 100 960.8
20260901080221 65 276 7.0 16.0 0.00 0.00 0.00 100 960.8
20260901080018 65 256 5.0 9.0 0.00 0.00 0.00 100 960.8
20260901075815 64 267 6.0 11.0 0.00 0.00 0.00 100 960.8
20260901075714 64 275 7.0 14.0 0.00 0.00 0.00 100 960.7
20260901075612 64 279 8.0 14.0 0.00 0.00 0.00 100 960.8
20260901075409 64 293 10.0 16.0 0.00 0.00 0.00 100 960.7
20260901075205 64 293 11.0 16.0 0.00 0.00 0.00 100 960.5
20260901075104 64 290 10.0 17.0 0.00 0.00 0.00 100 960.5
20260901075002 64 283 10.0 17.0 0.00 0.00 0.00 100 960.7
20260901074759 65 259 7.0 19.0 0.00 0.00 0.00 100 960.6
20260901074555 66 258 5.0 19.0 0.00 0.00 0.00 100 960.6
20260901074455 66 275 6.0 13.0 0.00 0.00 0.00 100 960.6
20260901074353 66 281 6.0 13.0 0.00 0.00 0.00 100 960.5
20260901074137 66 279 3.0 12.0 0.00 0.00 0.00 100 960.5
20260901073934 68 0 1.0 7.0 0.00 0.00 0.00 100 960.6
20260901073833 68 0 1.0 7.0 0.00 0.00 0.00 100 960.5
20260901073730 67 0 1.0 7.0 0.00 0.00 0.00 100 960.5
20260901073528 67 0 1.0 9.0 0.00 0.00 0.00 100 960.4
20260901073325 67 216 2.0 9.0 0.00 0.00 0.00 100 960.5
20260901073224 67 221 2.0 8.0 0.00 0.00 0.00 100 960.4
20260901073121 67 227 2.0 8.0 0.00 0.00 0.00 100 960.5
20260901072917 67 229 1.0 6.0 0.00 0.00 0.00 100 960.5
20260901072714 67 0 2.0 6.0 0.00 0.00 0.00 100 960.5
20260901072614 67 230 2.0 6.0 0.00 0.00 0.00 100 960.4
20260901072511 67 0 2.0 6.0 0.00 0.00 0.00 100 960.4
20260901072309 67 223 2.0 8.0 0.00 0.00 0.00 100 960.4
20260901072105 67 235 2.0 8.0 0.00 0.00 0.00 100 960.4
20260901072005 67 0 1.0 6.0 0.00 0.00 0.00 100 960.4
20260901071902 67 0 1.0 4.0 0.00 0.00 0.00 100 960.4
20260901071659 67 215 2.0 10.0 0.00 0.00 0.00 100 960.4
20260901071456 66 234 2.0 11.0 0.00 0.00 0.00 100 960.5
20260901071356 67 229 3.0 11.0 0.00 0.00 0.00 100 960.3
20260901071253 67 238 3.0 13.0 0.00 0.00 0.00 100 960.3
20260901071050 66 225 3.0 13.0 0.00 0.00 0.00 100 960.3
20260901070847 66 200 1.0 10.0 0.00 0.00 0.00 100 960.4
20260901070745 66 234 2.0 6.0 0.00 0.00 0.00 100 960.4
20260901070643 66 260 3.0 8.0 0.00 0.00 0.00 100 960.4
20260901070440 65 284 5.0 14.0 0.00 0.00 0.00 100 960.3
20260901070237 65 282 3.0 14.0 0.00 0.00 0.00 100 960.3
20260901070034 66 236 1.0 9.0 0.00 0.00 0.00 100 960.3
20260901065831 66 296 3.0 9.0 0.00 0.00 0.00 100 960.3
20260901065628 65 286 4.0 9.0 0.00 0.00 0.00 100 960.2
20260901065527 65 274 3.0 9.0 0.00 0.00 0.00 100 960.3
20260901065425 66 252 3.0 8.0 0.00 0.00 0.00 100 960.3
20260901065222 65 277 4.0 8.0 0.00 0.00 0.00 100 960.4
20260901065019 64 287 4.0 8.0 0.00 0.00 0.00 100 960.2
20260901064918 64 287 4.0 8.0 0.00 0.00 0.00 100 960.2
20260901064815 65 279 4.0 10.0 0.00 0.00 0.00 100 960.4
20260901064612 64 284 9.0 18.0 0.00 0.00 0.00 100 960.3
20260901064410 64 281 8.0 18.0 0.00 0.00 0.00 100 960.3
20260901064309 64 271 8.0 18.0 0.00 0.00 0.00 100 960.2
20260901064207 64 266 7.0 14.0 0.00 0.00 0.00 100 960.5
20260901064004 64 265 10.0 17.0 0.00 0.00 0.00 100 960.4
20260901063801 64 265 8.0 17.0 0.00 0.00 0.00 100 960.2
20260901063701 64 259 6.0 17.0 0.00 0.00 0.00 100 960.2
20260901063558 64 257 6.0 17.0 0.00 0.00 0.00 100 960.3
20260901063355 64 255 6.0 17.0 0.00 0.00 0.00 100 960.3
20260901063153 64 262 8.0 18.0 0.00 0.00 0.00 100 960.3
20260901062950 64 256 6.0 18.0 0.00 0.00 0.00 100 960.1
20260901062747 65 246 5.0 16.0 0.00 0.00 0.00 100 960.3
20260901062543 65 268 7.0 16.0 0.00 0.00 0.00 100 960.3
20260901062443 65 270 6.0 13.0 0.00 0.00 0.00 100 960.2
20260901062341 64 275 5.0 13.0 0.00 0.00 0.00 100 960.2
20260901062138 66 244 2.0 10.0 0.00 0.00 0.00 100 960.3
20260901061935 66 241 2.0 8.0 0.00 0.00 0.00 100 960.3
20260901061834 65 246 2.0 8.0 0.00 0.00 0.00 100 960.2
20260901061731 66 235 1.0 7.0 0.00 0.00 0.00 100 960.1
20260901061528 66 248 1.0 6.0 0.00 0.00 0.00 100 960.2
20260901061325 65 283 3.0 10.0 0.00 0.00 0.00 100 960.1
20260901061224 65 281 4.0 10.0 0.00 0.00 0.00 100 960.1
20260901061122 65 276 5.0 10.0 0.00 0.00 0.00 100 960.1
20260901060919 65 265 3.0 10.0 0.00 0.00 0.00 100 960.1
20260901060716 66 248 2.0 9.0 0.00 0.00 0.00 100 960.1
20260901060616 65 249 3.0 9.0 0.00 0.00 0.00 100 960.1
20260901060513 65 252 2.0 9.0 0.00 0.00 0.00 100 960.1
20260901060310 66 214 1.0 6.0 0.00 0.00 0.00 100 960.1
20260901060106 66 207 1.0 6.0 0.00 0.00 0.00 100 960.1
20260901055903 66 0 1.0 6.0 0.00 0.00 0.00 100 960.2
20260901055700 65 0 1.0 6.0 0.00 0.00 0.00 100 960.1
20260901055457 65 232 2.0 6.0 0.00 0.00 0.00 100 960.1
20260901055356 65 223 2.0 6.0 0.00 0.00 0.00 100 960.1
20260901055253 65 219 2.0 6.0 0.00 0.00 0.00 100 960.1
20260901055050 65 219 2.0 6.0 0.00 0.00 0.00 100 960.0
20260901054847 65 219 1.0 6.0 0.00 0.00 0.00 100 960.1
20260901054746 65 240 2.0 7.0 0.00 0.00 0.00 100 960.0
20260901054644 65 244 2.0 7.0 0.00 0.00 0.00 100 960.0
20260901054440 66 246 1.0 7.0 0.00 0.00 0.00 100 959.9
20260901054237 66 0 1.0 4.0 0.00 0.00 0.00 100 960.1
20260901054136 66 0 1.0 4.0 0.00 0.00 0.00 100 960.1
20260901054034 66 0 1.0 4.0 0.00 0.00 0.00 100 960.0
20260901053831 67 0 0.0 3.0 0.00 0.00 0.00 100 960.0
20260901053627 66 0 0.0 3.0 0.00 0.00 0.00 100 960.1
20260901053527 66 0 0.0 3.0 0.00 0.00 0.00 100 960.0
20260901053424 66 0 0.0 3.0 0.00 0.00 0.00 100 960.0
20260901053221 66 0 0.0 3.0 0.00 0.00 0.00 100 960.0
20260901053018 66 0 0.0 3.0 0.00 0.00 0.00 100 960.0
20260901052917 65 0 0.0 3.0 0.00 0.00 0.00 100 960.0
20260901052815 65 0 1.0 3.0 0.00 0.00 0.00 100 960.0
20260901052612 65 0 1.0 3.0 0.00 0.00 0.00 100 959.9
20260901052409 64 0 1.0 4.0 0.00 0.00 0.00 100 959.9
20260901052308 64 0 1.0 4.0 0.00 0.00 0.00 100 959.9
20260901052205 64 0 2.0 6.0 0.00 0.00 0.00 100 959.8
20260901052002 64 258 2.0 9.0 0.00 0.00 0.00 100 959.9
20260901051759 64 244 3.0 9.0 0.00 0.00 0.00 100 959.9
20260901051659 64 242 2.0 6.0 0.00 0.00 0.00 100 959.8
20260901051556 64 250 2.0 7.0 0.00 0.00 0.00 100 959.7
20260901051353 64 244 3.0 9.0 0.00 0.00 0.00 100 959.8
20260901051150 64 234 2.0 10.0 0.00 0.00 0.00 100 959.6
20260901051049 64 235 2.0 10.0 0.00 0.00 0.00 100 959.7
20260901050947 64 232 2.0 10.0 0.00 0.00 0.00 100 959.6
20260901050744 64 226 2.0 10.0 0.00 0.00 0.00 100 959.5
20260901050540 64 216 1.0 4.0 0.00 0.00 0.00 100 959.6
20260901050439 64 214 1.0 4.0 0.00 0.00 0.00 100 959.6
20260901050337 64 215 1.0 4.0 0.00 0.00 0.00 100 959.6
20260901050124 64 224 1.0 4.0 0.00 0.00 0.00 100 959.5
20260901045921 64 225 1.0 4.0 0.00 0.00 0.00 100 959.6
20260901045821 64 0 0.0 2.0 0.00 0.00 0.00 100 959.6
20260901045719 64 0 0.0 3.0 0.00 0.00 0.00 100 959.6
20260901045516 63 0 1.0 3.0 0.00 0.00 0.00 100 959.6
20260901045313 63 0 0.0 4.0 0.00 0.00 0.00 100 959.6
20260901045212 63 255 1.0 7.0 0.00 0.00 0.00 100 959.6
20260901045110 63 255 2.0 7.0 0.00 0.00 0.00 100 959.5
20260901044907 63 252 2.0 7.0 0.00 0.00 0.00 100 959.6
20260901044704 63 230 1.0 5.0 0.00 0.00 0.00 100 959.6
20260901044603 62 222 1.0 5.0 0.00 0.00 0.00 100 959.6
20260901044500 62 222 1.0 4.0 0.00 0.00 0.00 100 959.5
20260901044258 62 220 1.0 4.0 0.00 0.00 0.00 100 959.5
20260901044054 62 222 1.0 4.0 0.00 0.00 0.00 100 959.4
20260901043954 61 220 1.0 5.0 0.00 0.00 0.00 100 959.5
20260901043851 61 225 1.0 5.0 0.00 0.00 0.00 100 959.4
20260901043647 61 235 1.0 5.0 0.00 0.00 0.00 100 959.5
20260901043445 61 0 1.0 4.0 0.00 0.00 0.00 100 959.5
20260901043345 61 0 1.0 4.0 0.00 0.00 0.00 100 959.4
20260901043242 61 0 1.0 4.0 0.00 0.00 0.00 100 959.4
20260901043039 61 0 1.0 4.0 0.00 0.00 0.00 100 959.3
20260901042835 61 239 1.0 7.0 0.00 0.00 0.00 100 959.4
20260901042633 61 241 2.0 7.0 0.00 0.00 0.00 100 959.4
20260901042429 61 239 2.0 7.0 0.00 0.00 0.00 100 959.4
20260901042226 60 238 2.0 10.0 0.00 0.00 0.00 100 959.3
20260901042125 60 241 2.0 10.0 0.00 0.00 0.00 100 959.4
20260901042022 59 238 2.0 10.0 0.00 0.00 0.00 100 959.4
20260901041819 59 220 1.0 4.0 0.00 0.00 0.00 100 959.3
20260901041616 59 0 1.0 5.0 0.00 0.00 0.00 100 959.3
20260901041515 59 230 1.0 5.0 0.00 0.00 0.00 100 959.3
20260901041413 59 0 1.0 5.0 0.00 0.00 0.00 100 959.3
20260901041210 59 0 1.0 5.0 0.00 0.00 0.00 100 959.3
20260901041007 59 0 1.0 4.0 0.00 0.00 0.00 100 959.2
20260901040906 59 0 1.0 4.0 0.00 0.00 0.00 100 959.2
20260901040803 59 0 1.0 4.0 0.00 0.00 0.00 100 959.2
20260901040600 58 0 1.0 4.0 0.00 0.00 0.00 100 959.2
20260901040357 58 0 1.0 4.0 0.00 0.00 0.00 100 959.2
20260901040153 58 0 1.0 5.0 0.00 0.00 0.00 100 959.1
20260901035950 58 0 1.0 4.0 0.00 0.00 0.00 100 959.1
20260901035748 58 0 1.0 4.0 0.00 0.00 0.00 100 959.2
20260901035648 58 0 1.0 5.0 0.00 0.00 0.00 100 959.2
20260901035544 59 225 1.0 5.0 0.00 0.00 0.00 100 959.2
20260901035340 59 0 1.0 5.0 0.00 0.00 0.00 100 959.1
20260901035138 59 206 1.0 4.0 0.00 0.00 0.00 100 959.1
20260901034934 58 204 1.0 4.0 0.00 0.00 0.00 100 959.0
20260901034731 59 0 1.0 4.0 0.00 0.00 0.00 100 959.1
20260901034528 59 0 1.0 4.0 0.00 0.00 0.00 100 959.0
20260901034429 59 0 1.0 4.0 0.00 0.00 0.00 100 959.0
20260901034325 59 0 1.0 4.0 0.00 0.00 0.00 100 958.9
20260901034123 59 0 1.0 5.0 0.00 0.00 0.00 100 959.0
20260901033920 59 217 1.0 6.0 0.00 0.00 0.00 100 959.0
20260901033716 59 0 1.0 6.0 0.00 0.00 0.00 100 959.0
20260901033513 59 0 1.0 6.0 0.00 0.00 0.00 100 958.9
20260901033310 60 0 1.0 5.0 0.00 0.00 0.00 100 958.9
20260901033209 60 0 1.0 5.0 0.00 0.00 0.00 100 958.9
20260901033107 60 0 1.0 5.0 0.00 0.00 0.00 100 959.0
20260901032904 60 0 1.0 4.0 0.00 0.00 0.00 100 959.0
20260901032701 59 208 1.0 4.0 0.00 0.00 0.00 100 958.9
20260901032600 60 212 1.0 4.0 0.00 0.00 0.00 100 958.8
20260901032458 60 0 1.0 4.0 0.00 0.00 0.00 100 958.9
20260901032255 60 0 1.0 4.0 0.00 0.00 0.00 100 958.9
20260901032051 60 0 1.0 3.0 0.00 0.00 0.00 100 958.9
20260901031950 60 0 1.0 3.0 0.00 0.00 0.00 100 958.9
20260901031847 60 0 1.0 3.0 0.00 0.00 0.00 100 958.9
20260901031645 60 0 1.0 5.0 0.00 0.00 0.00 100 958.9
20260901031442 60 0 1.0 5.0 0.00 0.00 0.00 100 959.0
20260901031341 60 0 1.0 4.0 0.00 0.00 0.00 100 958.9
20260901031239 61 0 1.0 4.0 0.00 0.00 0.00 100 958.9
20260901031035 60 0 1.0 4.0 0.00 0.00 0.00 100 958.9
20260901030833 61 0 1.0 3.0 0.00 0.00 0.00 100 959.0
20260901030732 61 0 1.0 3.0 0.00 0.00 0.00 100 959.0
20260901030630 62 0 1.0 5.0 0.00 0.00 0.00 100 959.0
20260901030426 62 264 3.0 14.0 0.00 0.00 0.00 100 959.0
20260901030223 64 253 4.0 14.0 0.00 0.00 0.00 100 959.0
20260901030123 63 238 4.0 9.0 0.00 0.00 0.00 100 959.0
20260901030021 63 238 3.0 8.0 0.00 0.00 0.00 100 959.0
20260901025817 63 237 2.0 10.0 0.00 0.00 0.00 100 958.9
20260901025615 63 267 4.0 10.0 0.00 0.00 0.00 100 959.1
20260901025514 63 269 3.0 8.0 0.00 0.00 0.00 100 959.0
20260901025411 63 271 3.0 8.0 0.00 0.00 0.00 100 959.1
20260901025208 62 244 1.0 7.0 0.00 0.00 0.00 100 959.0
20260901025005 62 0 1.0 4.0 0.00 0.00 0.00 100 959.0
20260901024905 62 0 1.0 4.0 0.00 0.00 0.00 100 959.0
20260901024802 63 0 2.0 10.0 0.00 0.00 0.00 100 959.1
20260901024559 64 240 2.0 10.0 0.00 0.00 0.00 100 959.0
20260901024355 64 260 2.0 8.0 0.00 0.00 0.00 100 959.0
20260901024153 65 283 4.0 11.0 0.00 0.00 0.00 100 958.9
20260901023949 65 276 3.0 11.0 0.00 0.00 0.00 100 959.0
20260901023747 64 242 2.0 10.0 0.00 0.00 0.00 100 958.9
20260901023646 65 267 4.0 15.0 0.00 0.00 0.00 100 959.0
20260901023544 65 266 4.0 15.0 0.00 0.00 0.00 100 958.9
20260901023340 65 273 4.0 15.0 0.00 0.00 0.00 100 958.8
20260901023137 65 291 5.0 12.0 0.00 0.00 0.00 100 958.8
20260901023037 65 284 7.0 16.0 0.00 0.00 0.00 100 958.8
20260901022934 65 280 7.0 23.0 0.00 0.00 0.00 100 958.8
20260901022731 66 258 7.0 23.0 0.00 0.00 0.00 100 958.9
20260901022528 65 265 6.0 16.0 0.00 0.00 0.00 100 958.9
20260901022427 65 263 7.0 16.0 0.00 0.00 0.00 100 958.8
20260901022312 66 260 6.0 16.0 0.00 0.00 0.00 100 958.8
20260901022108 64 242 3.0 14.0 0.00 0.00 0.00 100 958.7
20260901021906 64 264 5.0 14.0 0.00 0.00 0.00 100 958.8
20260901021805 65 266 5.0 14.0 0.00 0.00 0.00 100 958.7
20260901021703 64 272 5.0 14.0 0.00 0.00 0.00 100 958.6
20260901021459 62 289 3.0 12.0 0.00 0.00 0.00 100 958.7
20260901021256 62 284 4.0 10.0 0.00 0.00 0.00 100 958.6
20260901021155 62 296 4.0 10.0 0.00 0.00 0.00 100 958.7
20260901021053 62 292 4.0 10.0 0.00 0.00 0.00 100 958.7
20260901020850 61 315 4.0 7.0 0.00 0.00 0.00 100 958.5
20260901020648 62 269 4.0 8.0 0.00 0.00 0.00 100 958.6
20260901020547 63 253 4.0 9.0 0.00 0.00 0.00 100 958.5
20260901020444 62 238 3.0 9.0 0.00 0.00 0.00 100 958.7
20260901020241 62 264 2.0 9.0 0.00 0.00 0.00 100 958.6
20260901020038 62 299 2.0 8.0 0.00 0.00 0.00 100 958.6
20260901015937 61 298 2.0 4.0 0.00 0.00 0.00 100 958.5
20260901015835 61 282 2.0 4.0 0.00 0.00 0.00 100 958.5
20260901015631 62 254 1.0 4.0 0.00 0.00 0.00 100 958.5
20260901015429 62 0 1.0 4.0 0.00 0.00 0.00 100 958.6
20260901015328 62 0 0.0 4.0 0.00 0.00 0.00 100 958.6
20260901015225 62 0 0.0 4.0 0.00 0.00 0.00 100 958.7
20260901015023 62 0 0.0 2.0 0.00 0.00 0.00 100 958.6
20260901014820 62 0 0.0 2.0 0.00 0.00 0.00 100 958.6
20260901014719 63 0 0.0 2.0 0.00 0.00 0.00 100 958.7
20260901014617 63 0 0.0 2.0 0.00 0.00 0.00 100 958.5
20260901014414 63 263 1.0 10.0 0.00 0.00 0.00 100 958.6
20260901014211 64 260 3.0 10.0 0.00 0.00 0.00 100 958.5
20260901014111 63 258 2.0 10.0 0.00 0.00 0.00 100 958.7
20260901014008 63 260 2.0 10.0 0.00 0.00 0.00 100 958.6
20260901013805 62 0 1.0 4.0 0.00 0.00 0.00 100 958.6
20260901013602 62 0 1.0 3.0 0.00 0.00 0.00 100 958.7
20260901013501 63 0 1.0 4.0 0.00 0.00 0.00 100 958.7
20260901013359 63 0 1.0 4.0 0.00 0.00 0.00 100 958.7
20260901013155 63 0 1.0 4.0 0.00 0.00 0.00 100 958.8
20260901012952 64 258 2.0 11.0 0.00 0.00 0.00 100 958.6
20260901012852 64 266 3.0 11.0 0.00 0.00 0.00 100 958.6
20260901012750 64 267 3.0 11.0 0.00 0.00 0.00 100 958.6
20260901012547 63 266 2.0 10.0 0.00 0.00 0.00 100 958.6
20260901012345 62 0 1.0 3.0 0.00 0.00 0.00 100 958.7
20260901012244 62 0 1.0 4.0 0.00 0.00 0.00 100 958.7
20260901012142 62 0 1.0 4.0 0.00 0.00 0.00 100 958.7
20260901011939 63 0 1.0 4.0 0.00 0.00 0.00 100 958.7
20260901011735 63 241 1.0 5.0 0.00 0.00 0.00 100 958.8
20260901011635 63 236 1.0 5.0 0.00 0.00 0.00 100 958.8
20260901011533 63 238 1.0 5.0 0.00 0.00 0.00 100 958.8
20260901011330 63 0 0.0 3.0 0.00 0.00 0.00 100 958.9
20260901011127 64 253 1.0 3.0 0.00 0.00 0.00 100 958.9
20260901011026 64 256 1.0 4.0 0.00 0.00 0.00 100 958.8
20260901010923 64 255 1.0 4.0 0.00 0.00 0.00 100 958.8
20260901010720 65 256 2.0 5.0 0.00 0.00 0.00 100 959.0
20260901010517 65 246 2.0 8.0 0.00 0.00 0.00 100 959.0
20260901010416 65 243 2.0 8.0 0.00 0.00 0.00 100 959.0
20260901010312 64 265 3.0 8.0 0.00 0.00 0.00 100 958.9
20260901010109 64 274 2.0 8.0 0.00 0.00 0.00 100 958.8
20260901005906 64 285 2.0 10.0 0.00 0.00 0.00 100 958.8
20260901005704 65 285 3.0 10.0 0.00 0.00 0.00 100 958.8
20260901005500 66 283 4.0 11.0 0.00 0.00 0.00 100 958.9
20260901005257 66 286 6.0 11.0 0.00 0.00 0.00 100 958.8
20260901005054 66 284 7.0 11.0 0.00 0.00 0.00 100 958.8
20260901004850 65 260 5.0 12.0 0.00 0.00 0.00 100 958.8
20260901004647 64 246 2.0 9.0 0.00 0.00 0.00 100 959.0
20260901004546 63 235 1.0 8.0 0.00 0.00 0.00 100 959.0
20260901004444 63 226 1.0 5.0 0.00 0.00 0.00 100 958.9
20260901004241 63 217 1.0 5.0 0.00 0.00 0.00 100 958.9
20260901004037 63 215 1.0 5.0 0.00 0.00 0.00 100 959.0
20260901003937 63 0 1.0 4.0 0.00 0.00 0.00 100 959.0
20260901003835 63 227 1.0 4.0 0.00 0.00 0.00 100 958.9
20260901003631 63 0 1.0 3.0 0.00 0.00 0.00 100 958.9
20260901003428 63 0 1.0 3.0 0.00 0.00 0.00 100 958.9
20260901003327 63 0 1.0 3.0 0.00 0.00 0.00 100 959.0
20260901003225 63 0 1.0 3.0 0.00 0.00 0.00 100 959.1
20260901003022 64 0 1.0 5.0 0.00 0.00 0.00 100 959.1
20260901002819 64 0 1.0 5.0 0.00 0.00 0.00 100 959.1
20260901002718 64 0 1.0 5.0 0.00 0.00 0.00 100 959.1
20260901002616 64 0 1.0 4.0 0.00 0.00 0.00 100 959.1
20260901002413 64 0 1.0 4.0 0.00 0.00 0.00 100 959.1
20260901002210 64 0 1.0 5.0 0.00 0.00 0.00 100 959.1
20260901002109 64 0 1.0 5.0 0.00 0.00 0.00 100 959.0
20260901002006 64 218 1.0 5.0 0.00 0.00 0.00 100 959.1
20260901001803 63 0 1.0 5.0 0.00 0.00 0.00 100 959.3
20260901001600 63 0 1.0 4.0 0.00 0.00 0.00 100 959.3
20260901001500 63 0 1.0 4.0 0.00 0.00 0.00 100 959.2
20260901001358 63 0 1.0 4.0 0.00 0.00 0.00 100 959.2
20260901001154 64 0 1.0 4.0 0.00 0.00 0.00 100 959.2
20260901000951 64 0 1.0 3.0 0.00 0.00 0.00 100 959.2
20260901000748 64 0 1.0 4.0 0.00 0.00 0.00 100 959.2
20260901000544 64 0 1.0 4.0 0.00 0.00 0.00 100 959.2
20260901000343 64 239 1.0 9.0 0.00 0.00 0.00 100 959.2
20260901000241 64 239 2.0 9.0 0.00 0.00 0.00 100 959.1
20260901000139 65 237 2.0 9.0 0.00 0.00 0.00 100 959.2
20260831235936 65 235 2.0 9.0 0.00 0.00 0.00 100 959.2
20260831235733 65 240 2.0 10.0 0.00 0.00 0.00 100 959.2
20260831235632 65 235 2.0 10.0 0.00 0.00 0.00 100 959.2
20260831235530 65 238 2.0 10.0 0.00 0.00 0.00 100 959.2
20260831235327 65 236 2.0 6.0 0.00 0.00 0.00 100 959.3
20260831235123 65 231 2.0 5.0 0.00 0.00 0.00 100 959.1
20260831234920 65 221 1.0 5.0 0.00 0.00 0.00 100 959.1
20260831234718 65 227 1.0 5.0 0.00 0.00 0.00 100 959.1
20260831234515 65 230 1.0 6.0 0.00 0.00 0.00 100 959.1
20260831234400 66 229 1.0 6.0 0.00 0.00 0.00 100 959.2
20260831234258 66 230 2.0 6.0 0.00 0.00 0.00 100 959.1
20260831234055 65 237 2.0 7.0 0.00 0.00 0.00 100 959.2
20260831233852 66 243 2.0 7.0 0.00 0.00 0.00 100 959.2
20260831233649 66 238 2.0 6.0 0.00 0.00 0.00 100 959.2
20260831233446 66 246 3.0 7.0 0.00 0.00 0.00 100 959.2
20260831233243 66 256 3.0 7.0 0.00 0.00 0.00 100 959.2
20260831233040 66 253 3.0 7.0 0.00 0.00 0.00 100 959.3
20260831232837 66 247 2.0 7.0 0.00 0.00 0.00 100 959.3
20260831232635 67 249 4.0 16.0 0.00 0.00 0.00 100 959.3
20260831232534 67 246 4.0 16.0 0.00 0.00 0.00 100 959.4
20260831232432 67 247 4.0 16.0 0.00 0.00 0.00 100 959.3
20260831232229 67 262 5.0 15.0 0.00 0.00 0.00 100 959.3
20260831232026 67 261 6.0 15.0 0.00 0.00 0.00 100 959.4
20260831231925 67 258 6.0 13.0 0.00 0.00 0.00 100 959.5
20260831231823 67 259 6.0 13.0 0.00 0.00 0.00 100 959.4
20260831231621 67 266 5.0 10.0 0.00 0.00 0.00 100 959.5
20260831231417 67 278 7.0 16.0 0.00 0.00 0.00 100 959.4
20260831231316 67 275 6.0 16.0 0.00 0.00 0.00 100 959.4
20260831231214 67 271 6.0 16.0 0.00 0.00 0.00 100 959.4
20260831231011 67 248 4.0 12.0 0.00 0.00 0.00 100 959.5
20260831230808 67 263 5.0 12.0 0.00 0.00 0.00 100 959.4
20260831230708 67 271 5.0 9.0 0.00 0.00 0.00 100 959.5
20260831230605 68 283 6.0 12.0 0.00 0.00 0.00 100 959.4
20260831230402 68 272 6.0 14.0 0.00 0.00 0.00 100 959.4
20260831230159 67 262 8.0 24.0 0.00 0.00 0.00 100 959.3
20260831230057 67 255 7.0 24.0 0.00 0.00 0.00 100 959.4
20260831225955 67 260 8.0 24.0 0.00 0.00 0.00 100 959.3
20260831225752 67 259 6.0 13.0 0.00 0.00 0.00 100 959.3
20260831225549 67 260 5.0 13.0 0.00 0.00 0.00 100 959.3
20260831225448 67 257 6.0 12.0 0.00 0.00 0.00 100 959.3
20260831225346 67 256 6.0 13.0 0.00 0.00 0.00 100 959.3
20260831225142 67 258 4.0 13.0 0.00 0.00 0.00 100 959.3
20260831224939 66 282 4.0 7.0 0.00 0.00 0.00 100 959.3
20260831224838 66 284 5.0 10.0 0.00 0.00 0.00 100 959.2
20260831224736 66 284 5.0 10.0 0.00 0.00 0.00 100 959.2
20260831224532 66 276 4.0 10.0 0.00 0.00 0.00 100 959.2
20260831224329 65 246 3.0 8.0 0.00 0.00 0.00 100 959.2
20260831224229 64 245 2.0 7.0 0.00 0.00 0.00 100 959.1
20260831224126 64 248 2.0 7.0 0.00 0.00 0.00 100 959.2
20260831223924 64 257 2.0 7.0 0.00 0.00 0.00 100 959.2
20260831223719 62 247 2.0 7.0 0.00 0.00 0.00 100 959.1
20260831223619 62 230 1.0 3.0 0.00 0.00 0.00 100 959.1
20260831223516 62 227 1.0 3.0 0.00 0.00 0.00 100 959.0
20260831223313 62 210 1.0 2.0 0.00 0.00 0.00 100 959.0
20260831223110 62 213 1.0 2.0 0.00 0.00 0.00 100 959.0
20260831223010 61 217 1.0 2.0 0.00 0.00 0.00 100 959.0
20260831222908 62 214 1.0 3.0 0.00 0.00 0.00 100 959.0
20260831222705 62 0 1.0 3.0 0.00 0.00 0.00 100 959.0
20260831222502 62 0 1.0 3.0 0.00 0.00 0.00 100 959.0
20260831222402 62 0 1.0 3.0 0.00 0.00 0.00 100 959.0
20260831222300 62 0 0.0 2.0 0.00 0.00 0.00 100 959.0
20260831222056 62 0 0.0 2.0 0.00 0.00 0.00 100 959.1
20260831221854 62 0 0.0 2.0 0.00 0.00 0.00 100 959.0
20260831221753 62 0 0.0 2.0 0.00 0.00 0.00 100 959.0
20260831221650 62 0 1.0 2.0 0.00 0.00 0.00 100 958.9
20260831221448 62 0 1.0 3.0 0.00 0.00 0.00 100 959.0
20260831221244 62 0 1.0 4.0 0.00 0.00 0.00 100 959.0
20260831221144 62 0 1.0 4.0 0.00 0.00 0.00 100 959.1
20260831221041 62 0 1.0 4.0 0.00 0.00 0.00 100 959.1
20260831220838 61 0 1.0 4.0 0.00 0.00 0.00 100 959.0
20260831220635 61 0 1.0 3.0 0.00 0.00 0.00 100 959.0
20260831220535 61 0 1.0 3.0 0.00 0.00 0.00 100 958.9
20260831220433 61 0 1.0 5.0 0.00 0.00 0.00 100 958.9
20260831220229 62 206 1.0 5.0 0.00 0.00 0.00 100 959.0
20260831220026 62 207 1.0 4.0 0.00 0.00 0.00 100 959.0
20260831215925 62 208 1.0 3.0 0.00 0.00 0.00 100 958.9
20260831215823 62 0 1.0 5.0 0.00 0.00 0.00 100 959.0
20260831215620 62 193 1.0 5.0 0.00 0.00 0.00 100 958.9
20260831215416 63 200 1.0 6.0 0.00 0.00 0.00 100 959.0
20260831215316 63 205 1.0 6.0 0.00 0.00 0.00 100 959.1
20260831215213 63 211 2.0 6.0 0.00 0.00 0.00 100 959.1
20260831215011 63 0 1.0 4.0 0.00 0.00 0.00 100 959.0
20260831214807 63 0 1.0 4.0 0.00 0.00 0.00 100 959.1
20260831214604 63 0 1.0 4.0 0.00 0.00 0.00 100 959.2
20260831214401 64 0 1.0 4.0 0.00 0.00 0.00 100 959.1
20260831214158 63 0 1.0 4.0 0.00 0.00 0.00 100 959.1
20260831214057 63 0 1.0 4.0 0.00 0.00 0.00 100 959.1
20260831213955 63 0 0.0 2.0 0.00 0.00 0.00 100 959.1
20260831213752 63 0 0.0 2.0 0.00 0.00 0.00 100 959.1
20260831213548 63 194 1.0 3.0 0.00 0.00 0.00 100 959.1
20260831213447 63 199 1.0 3.0 0.00 0.00 0.00 100 959.1
20260831213345 63 207 0.0 3.0 0.00 0.00 0.00 100 959.1
20260831213142 64 0 0.0 1.0 0.00 0.00 0.00 100 959.1
20260831212939 64 0 0.0 2.0 0.00 0.00 0.00 100 959.1
20260831212838 64 206 0.0 2.0 0.00 0.00 0.00 100 959.1
20260831212736 64 211 1.0 2.0 0.00 0.00 0.00 100 959.1
20260831212533 64 241 1.0 2.0 0.00 0.00 0.00 100 959.0
20260831212329 64 305 1.0 3.0 0.00 0.00 0.00 100 959.0
20260831212229 64 307 2.0 3.0 0.00 0.00 0.00 100 959.1
20260831212126 64 306 2.0 3.0 0.00 0.00 0.00 100 959.0
20260831211922 64 314 2.0 5.0 0.00 0.00 0.00 100 959.0
20260831211719 64 319 3.0 8.0 0.00 0.00 0.00 100 958.9
20260831211619 64 319 2.0 8.0 0.00 0.00 0.00 100 958.9
20260831211423 64 312 2.0 8.0 0.00 0.00 0.00 100 958.9
20260831211221 64 304 3.0 6.0 0.00 0.00 0.00 100 958.9
20260831211120 64 299 3.0 7.0 0.00 0.00 0.00 100 958.9
20260831211018 64 289 3.0 7.0 0.00 0.00 0.00 100 958.9
20260831210814 64 282 2.0 7.0 0.00 0.00 0.00 100 958.9
20260831210611 63 269 2.0 4.0 0.00 0.00 0.00 100 958.8
20260831210511 63 263 1.0 3.0 0.00 0.00 0.00 100 958.8
20260831210408 62 237 1.0 4.0 0.00 0.00 0.00 100 958.8
20260831210205 62 229 1.0 2.0 0.00 0.00 0.00 100 958.8
20260831210002 62 0 0.0 3.0 0.00 0.00 0.00 100 958.8
20260831205847 62 0 0.0 2.0 0.00 0.00 0.00 100 958.7
20260831205744 62 0 0.0 2.0 0.00 0.00 0.00 100 958.7
20260831205541 62 0 0.0 2.0 0.00 0.00 0.00 100 958.8
20260831205339 62 0 0.0 2.0 0.00 0.00 0.00 100 958.7
20260831205237 62 0 0.0 2.0 0.00 0.00 0.00 100 958.7
20260831205135 62 0 0.0 2.0 0.00 0.00 0.00 100 958.7
20260831204932 62 0 0.0 2.0 0.00 0.00 0.00 100 958.6
20260831204730 62 0 0.0 2.0 0.00 0.00 0.00 100 958.7
20260831204629 62 0 0.0 3.0 0.00 0.00 0.00 100 958.5
20260831204527 62 0 0.0 3.0 0.00 0.00 0.00 100 958.4
20260831204325 62 0 0.0 3.0 0.00 0.00 0.00 100 958.5
20260831204121 62 209 1.0 3.0 0.00 0.00 0.00 100 958.5
20260831204021 62 207 1.0 3.0 0.00 0.00 0.00 100 958.5
20260831203919 62 208 1.0 3.0 0.00 0.00 0.00 100 958.5
20260831203715 62 210 1.0 2.0 0.00 0.00 0.00 100 958.4
20260831203512 62 213 1.0 2.0 0.00 0.00 0.00 100 958.3
20260831203412 62 208 1.0 2.0 0.00 0.00 0.00 100 958.3
20260831203309 63 197 1.0 3.0 0.00 0.00 0.00 100 958.3
20260831203106 63 203 1.0 3.0 0.00 0.00 0.00 100 958.4
20260831202903 62 217 1.0 3.0 0.00 0.00 0.00 100 958.3
20260831202803 62 217 1.0 3.0 0.00 0.00 0.00 100 958.4
20260831202700 63 197 1.0 2.0 0.00 0.00 0.00 100 958.4
20260831202457 62 195 1.0 2.0 0.00 0.00 0.00 100 958.3
20260831202253 62 199 1.0 2.0 0.00 0.00 0.00 100 958.4
20260831202153 62 201 1.0 2.0 0.00 0.00 0.00 100 958.4
20260831202050 62 203 1.0 4.0 0.00 0.00 0.00 100 958.4
20260831201848 62 191 2.0 4.0 0.00 0.00 0.00 100 958.4
20260831201644 62 182 2.0 4.0 0.00 0.00 0.00 100 958.4
20260831201543 62 182 2.0 3.0 0.00 0.00 0.00 100 958.4
20260831201441 63 184 1.0 3.0 0.00 0.00 0.00 100 958.5
20260831201238 63 187 1.0 3.0 0.00 0.00 0.00 100 958.4
20260831201035 63 152 2.0 4.0 0.00 0.00 0.00 100 958.4
20260831200934 63 148 2.0 4.0 0.00 0.00 0.00 100 958.4
20260831200832 63 143 2.0 4.0 0.00 0.00 0.00 100 958.4
20260831200629 64 129 2.0 3.0 0.00 0.00 0.00 100 958.4
20260831200426 64 142 1.0 2.0 0.00 0.00 0.00 100 958.3
20260831200326 63 162 1.0 2.0 0.00 0.00 0.00 100 958.3
20260831200223 63 185 1.0 2.0 0.00 0.00 0.00 100 958.3
20260831200021 63 188 1.0 3.0 0.00 0.00 0.00 100 958.2
20260831195818 63 203 1.0 3.0 0.00 0.00 0.00 100 958.3
20260831195718 63 0 0.0 3.0 0.00 0.00 0.00 100 958.2
20260831195615 64 0 1.0 3.0 0.00 0.00 0.00 100 958.1
20260831195412 64 174 2.0 4.0 0.00 0.00 0.00 100 958.2
20260831195208 64 181 2.0 4.0 0.00 0.00 0.00 100 958.1
20260831195005 64 178 2.0 4.0 0.00 0.00 0.00 100 958.1
20260831194802 64 167 2.0 4.0 0.00 0.00 0.00 100 958.1
20260831194559 65 163 1.0 3.0 0.00 0.00 0.00 100 958.1
20260831194458 65 0 1.0 3.0 0.00 0.00 0.00 100 958.1
20260831194356 65 43 1.0 3.0 0.00 0.00 0.00 100 958.2
20260831194153 65 27 1.0 3.0 0.00 0.00 0.00 100 958.1
20260831193950 65 0 1.0 4.0 0.00 0.00 0.00 100 958.1
20260831193849 65 0 1.0 4.0 0.00 0.00 0.00 100 958.2
20260831193746 65 234 1.0 4.0 0.00 0.00 0.00 100 958.2
20260831193544 65 210 1.0 4.0 0.00 0.00 0.00 100 958.1
20260831193340 65 209 2.0 4.0 0.00 0.00 0.00 100 958.0
20260831193239 65 226 1.0 3.0 0.00 0.00 0.00 100 958.1
20260831193137 65 232 1.0 3.0 0.00 0.00 0.00 100 958.0
20260831192934 65 237 1.0 3.0 0.00 0.00 0.00 100 958.1
20260831192731 65 222 1.0 3.0 0.00 0.00 0.00 100 957.9
20260831192630 65 220 1.0 3.0 0.00 0.00 0.00 100 957.9
20260831192528 65 217 1.0 3.0 0.00 0.00 0.00 100 957.9
20260831192325 65 0 0.0 2.0 0.00 0.00 0.00 100 958.1
20260831192122 65 252 1.0 2.0 0.00 0.00 0.00 100 958.1
20260831192021 66 247 1.0 2.0 0.00 0.00 0.00 100 958.1
20260831191919 66 248 1.0 2.0 0.00 0.00 0.00 100 958.0
20260831191716 65 244 1.0 2.0 0.00 0.00 0.00 100 958.0
20260831191513 65 0 0.0 2.0 0.00 0.00 0.00 100 957.9
20260831191412 65 0 1.0 3.0 0.00 0.00 0.00 100 957.9
20260831191310 65 0 1.0 3.0 0.00 0.00 0.00 100 958.0
20260831191107 65 0 1.0 3.0 0.00 0.00 0.00 100 958.0
20260831190905 65 0 1.0 3.0 0.00 0.00 0.00 100 958.0
20260831190804 65 0 1.0 3.0 0.00 0.00 0.00 100 957.9
20260831190701 65 0 1.0 3.0 0.00 0.00 0.00 100 957.9
20260831190458 65 0 1.0 3.0 0.00 0.00 0.00 100 957.8
20260831190255 65 0 0.0 4.0 0.00 0.00 0.00 100 957.9
20260831190052 65 0 1.0 4.0 0.00 0.00 0.00 100 957.9
20260831185848 65 0 1.0 3.0 0.00 0.00 0.00 100 957.8
20260831185646 65 0 1.0 3.0 0.00 0.00 0.00 100 957.9
20260831185443 65 0 1.0 3.0 0.00 0.00 0.00 100 957.9
20260831185240 65 0 1.0 3.0 0.00 0.00 0.00 100 957.8
20260831185037 65 0 1.0 3.0 0.00 0.00 0.00 100 957.7
20260831184937 66 227 1.0 3.0 0.00 0.00 0.00 100 957.8
20260831184834 66 237 1.0 3.0 0.00 0.00 0.00 100 957.7
20260831184631 66 241 1.0 4.0 0.00 0.00 0.00 100 957.8
20260831184429 66 0 1.0 4.0 0.00 0.00 0.00 100 957.7
20260831184225 66 0 1.0 4.0 0.00 0.00 0.00 100 957.8
20260831184023 66 0 1.0 4.0 0.00 0.00 0.00 100 957.7
20260831183820 66 0 1.0 5.0 0.00 0.00 0.00 100 957.7
20260831183720 66 0 1.0 5.0 0.00 0.00 0.00 100 957.8
20260831183617 66 0 1.0 5.0 0.00 0.00 0.00 100 957.8
20260831183415 66 0 1.0 3.0 0.00 0.00 0.00 100 957.7
20260831183212 66 0 1.0 3.0 0.00 0.00 0.00 100 957.8
20260831183111 66 0 1.0 3.0 0.00 0.00 0.00 100 957.8
20260831183008 66 0 1.0 3.0 0.00 0.00 0.00 100 957.8
20260831182805 66 0 1.0 3.0 0.00 0.00 0.00 100 957.8
20260831182602 66 0 1.0 4.0 0.00 0.00 0.00 100 957.8
20260831182501 66 0 1.0 6.0 0.00 0.00 0.00 100 957.8
20260831182359 66 222 1.0 6.0 0.00 0.00 0.00 100 957.7
20260831182156 66 214 1.0 6.0 0.00 0.00 0.00 100 957.8
20260831181939 66 0 1.0 3.0 0.00 0.00 0.00 100 957.8
20260831181838 66 0 1.0 3.0 0.00 0.00 0.00 100 957.8
20260831181736 66 0 1.0 3.0 0.00 0.00 0.00 100 957.8
20260831181533 66 0 1.0 5.0 0.00 0.00 0.00 100 957.7
20260831181329 67 0 1.0 5.0 0.00 0.00 0.00 100 957.8
20260831181228 67 0 1.0 5.0 0.00 0.00 0.00 100 957.8
20260831181126 67 0 1.0 5.0 0.00 0.00 0.00 100 957.8
20260831180923 67 0 1.0 5.0 0.00 0.00 0.00 100 957.7
20260831180719 67 0 1.0 4.0 0.00 0.00 0.00 100 957.6
20260831180618 68 0 1.0 4.0 0.00 0.00 0.00 100 957.6
20260831180516 68 0 1.0 4.0 0.00 0.00 0.00 100 957.6
20260831180313 67 0 1.0 4.0 0.00 0.00 0.00 100 957.6
20260831180110 67 0 1.0 4.0 0.00 0.00 0.00 100 957.6
20260831180009 67 0 1.0 4.0 0.00 0.00 0.00 100 957.6
20260831175907 67 0 1.0 3.0 0.00 0.00 0.00 100 957.5
20260831175704 67 0 1.0 4.0 0.00 0.00 0.00 100 957.6
20260831175501 68 0 1.0 4.0 0.00 0.00 0.00 100 957.5
20260831175400 68 0 1.0 4.0 0.00 0.00 0.00 100 957.6
20260831175257 68 0 1.0 4.0 0.00 0.00 0.00 100 957.4
20260831175054 68 0 1.0 4.0 0.00 0.00 0.00 100 957.5
20260831174851 68 0 1.0 4.0 0.00 0.00 0.00 100 957.5
20260831174749 68 0 1.0 4.0 0.00 0.00 0.00 100 957.3
20260831174647 69 0 1.0 4.0 0.00 0.00 0.00 100 957.5
20260831174444 69 0 1.0 4.0 0.00 0.00 0.00 100 957.3
20260831174241 69 0 1.0 2.0 0.00 0.00 0.00 100 957.4
20260831174140 69 0 0.0 2.0 0.00 0.00 0.00 100 957.5
20260831174038 69 0 1.0 3.0 0.00 0.00 0.00 100 957.4
20260831173834 69 0 1.0 4.0 0.00 0.00 0.00 100 957.5
20260831173631 69 0 1.0 4.0 0.00 0.00 0.00 100 957.5
20260831173530 69 0 1.0 3.0 0.00 0.00 0.00 100 957.4
20260831173428 70 0 1.0 3.0 0.00 0.00 0.00 100 957.4
20260831173225 70 0 1.0 4.0 0.00 0.00 0.00 100 957.4
20260831173021 70 0 1.0 4.0 0.00 0.00 0.00 100 957.3
20260831172921 70 0 1.0 4.0 0.00 0.00 0.00 100 957.3
20260831172819 70 0 1.0 4.0 0.00 0.00 0.00 100 957.3
20260831172616 70 0 1.0 3.0 0.00 0.00 0.00 100 957.3
20260831172413 70 0 1.0 3.0 0.00 0.00 0.00 100 957.3
20260831172211 70 0 1.0 3.0 0.00 0.00 0.00 100 957.3
20260831172007 70 0 1.0 3.0 0.00 0.00 0.00 100 957.3
20260831171805 71 0 1.0 4.0 0.00 0.00 0.00 100 957.3
20260831171704 71 0 1.0 4.0 0.00 0.00 0.00 100 957.2
20260831171601 71 223 1.0 4.0 0.00 0.00 0.00 100 957.3
20260831171358 71 234 1.0 5.0 0.00 0.00 0.00 100 957.2
20260831171155 71 227 1.0 5.0 0.00 0.00 0.00 100 957.2
20260831171055 71 0 1.0 5.0 0.00 0.00 0.00 100 957.2
20260831170952 71 222 1.0 4.0 0.00 0.00 0.00 100 957.1
20260831170749 71 213 1.0 4.0 0.00 0.00 0.00 100 957.1
20260831170546 71 0 1.0 4.0 0.00 0.00 0.00 100 957.1
20260831170445 71 0 1.0 5.0 0.00 0.00 0.00 100 957.2
20260831170344 71 0 1.0 6.0 0.00 0.00 0.00 100 957.2
20260831170140 71 214 1.0 6.0 0.00 0.00 0.00 100 957.3
20260831165938 71 0 1.0 5.0 0.00 0.00 0.00 100 957.3
20260831165837 71 0 1.0 5.0 0.00 0.00 0.00 100 957.2
20260831165734 71 0 1.0 2.0 0.00 0.00 0.00 100 957.2
20260831165531 71 0 1.0 2.0 0.00 0.00 0.00 100 957.2
20260831165328 72 0 0.0 4.0 0.00 0.00 0.00 100 957.2
20260831165227 72 0 1.0 4.0 0.00 0.00 0.00 100 957.2
20260831165125 71 0 1.0 4.0 0.00 0.00 0.00 100 957.2
20260831164922 71 217 1.0 5.0 0.00 0.00 0.00 100 957.1
20260831164718 72 237 1.0 5.0 0.00 0.00 0.00 100 957.2
20260831164618 71 0 1.0 5.0 0.00 0.00 0.00 100 957.1
20260831164515 72 229 1.0 6.0 0.00 0.00 0.00 100 957.2
20260831164312 72 230 1.0 6.0 0.00 0.00 0.00 100 957.1
20260831164109 72 221 1.0 6.0 0.00 0.00 0.00 100 957.1
20260831164009 72 219 2.0 6.0 0.00 0.00 0.00 100 957.1
20260831163907 72 218 2.0 6.0 0.00 0.00 0.00 100 957.0
20260831163703 72 0 1.0 6.0 0.00 0.00 0.00 100 957.1
20260831163500 72 0 1.0 6.0 0.00 0.00 0.00 100 957.0
20260831163359 72 0 1.0 6.0 0.00 0.00 0.00 100 956.9
20260831163257 73 0 1.0 5.0 0.00 0.00 0.00 100 957.0
20260831163054 73 0 1.0 5.0 0.00 0.00 0.00 100 957.1
20260831162851 73 0 1.0 6.0 0.00 0.00 0.00 100 957.1
20260831162750 73 0 1.0 6.0 0.00 0.00 0.00 100 957.0
20260831162648 73 0 1.0 4.0 0.00 0.00 0.00 100 957.1
20260831162444 73 0 1.0 6.0 0.00 0.00 0.00 100 957.0
20260831162242 73 0 1.0 6.0 0.00 0.00 0.00 100 957.0
20260831162142 73 217 1.0 6.0 0.00 0.00 0.00 100 957.1
20260831162039 74 218 2.0 6.0 0.00 0.00 0.00 100 957.1
20260831161836 74 225 1.0 6.0 0.00 0.00 0.00 100 957.1
20260831161632 74 0 1.0 3.0 0.00 0.00 0.00 100 957.1
20260831161532 74 0 1.0 4.0 0.00 0.00 0.00 100 956.9
20260831161429 74 243 2.0 6.0 0.00 0.00 0.00 100 956.9
20260831161225 73 242 2.0 6.0 0.00 0.00 0.00 100 957.0
20260831161022 73 232 2.0 8.0 0.00 0.00 0.00 100 957.0
20260831160922 73 244 2.0 11.0 0.00 0.00 0.00 100 957.0
20260831160819 73 244 2.0 11.0 0.00 0.00 0.00 100 957.0
20260831160616 73 250 3.0 11.0 0.00 0.00 0.00 100 956.9
20260831160413 73 245 3.0 8.0 0.00 0.00 0.00 100 957.0
20260831160313 73 236 2.0 8.0 0.00 0.00 0.00 100 957.0
20260831160210 73 225 2.0 8.0 0.00 0.00 0.00 100 957.0
20260831160008 73 233 2.0 8.0 0.00 0.00 0.00 100 956.7
20260831155804 74 234 2.0 9.0 0.00 0.00 0.00 100 956.8
20260831155704 74 238 3.0 10.0 0.00 0.00 0.00 100 956.8
20260831155602 74 237 3.0 10.0 0.00 0.00 0.00 100 956.8
20260831155358 74 225 2.0 10.0 0.00 0.00 0.00 100 956.9
20260831155156 74 227 2.0 9.0 0.00 0.00 0.00 100 956.8
20260831155055 74 233 3.0 9.0 0.00 0.00 0.00 100 956.9
20260831154953 74 240 2.0 9.0 0.00 0.00 0.00 100 956.9
20260831154749 74 249 2.0 6.0 0.00 0.00 0.00 100 956.8
20260831154546 73 0 1.0 7.0 0.00 0.00 0.00 100 956.8
20260831154446 73 0 1.0 5.0 0.00 0.00 0.00 100 956.9
20260831154342 73 231 1.0 5.0 0.00 0.00 0.00 100 956.8
20260831154139 72 234 2.0 9.0 0.00 0.00 0.00 100 956.8
20260831153925 72 235 2.0 9.0 0.00 0.00 0.00 100 956.9
20260831153825 72 234 2.0 7.0 0.00 0.00 0.00 100 956.9
20260831153723 73 235 2.0 7.0 0.00 0.00 0.00 100 956.9
20260831153520 73 233 2.0 7.0 0.00 0.00 0.00 100 956.8
20260831153317 73 233 2.0 6.0 0.00 0.00 0.00 100 956.9
20260831153215 73 237 2.0 8.0 0.00 0.00 0.00 100 956.8
20260831153113 73 239 2.0 11.0 0.00 0.00 0.00 100 956.9
20260831152909 73 241 2.0 11.0 0.00 0.00 0.00 100 956.9
20260831152706 73 233 2.0 10.0 0.00 0.00 0.00 100 956.9
20260831152606 73 218 2.0 10.0 0.00 0.00 0.00 100 956.8
20260831152503 73 218 2.0 10.0 0.00 0.00 0.00 100 956.8
20260831152300 73 240 2.0 10.0 0.00 0.00 0.00 100 956.9
20260831152057 73 253 2.0 11.0 0.00 0.00 0.00 100 956.9
20260831151956 73 256 3.0 11.0 0.00 0.00 0.00 100 956.8
20260831151853 73 260 4.0 11.0 0.00 0.00 0.00 100 956.8
20260831151650 73 249 3.0 9.0 0.00 0.00 0.00 100 956.9
20260831151447 74 237 3.0 9.0 0.00 0.00 0.00 100 956.8
20260831151244 73 235 3.0 9.0 0.00 0.00 0.00 100 956.8
20260831151041 73 242 3.0 12.0 0.00 0.00 0.00 100 956.8
20260831150837 73 248 4.0 12.0 0.00 0.00 0.00 100 956.8
20260831150737 73 241 4.0 12.0 0.00 0.00 0.00 100 956.8
20260831150634 73 251 4.0 12.0 0.00 0.00 0.00 100 956.8
20260831150431 73 246 4.0 12.0 0.00 0.00 0.00 100 956.9
20260831150228 73 244 3.0 12.0 0.00 0.00 0.00 100 956.9
20260831150128 73 239 2.0 12.0 0.00 0.00 0.00 100 956.9
20260831150025 73 233 2.0 8.0 0.00 0.00 0.00 100 956.9
20260831145822 74 248 2.0 9.0 0.00 0.00 0.00 100 956.9
20260831145618 73 236 2.0 9.0 0.00 0.00 0.00 100 956.9
20260831145517 73 221 2.0 6.0 0.00 0.00 0.00 100 956.9
20260831145415 73 229 2.0 12.0 0.00 0.00 0.00 100 956.9
20260831145211 73 228 3.0 12.0 0.00 0.00 0.00 100 956.9
20260831145008 73 233 3.0 15.0 0.00 0.00 0.00 100 956.8
20260831144908 73 236 3.0 15.0 0.00 0.00 0.00 100 956.8
20260831144805 73 254 4.0 14.0 0.00 0.00 0.00 100 956.8
20260831144602 73 262 7.0 15.0 0.00 0.00 0.00 100 956.8
20260831144359 73 261 8.0 15.0 0.00 0.00 0.00 100 956.7
20260831144259 73 262 8.0 14.0 0.00 0.00 0.00 100 956.9
20260831144157 73 260 6.0 13.0 0.00 0.00 0.00 100 956.8
20260831143954 73 259 6.0 15.0 0.00 0.00 0.00 100 956.8
20260831143750 73 269 7.0 17.0 0.00 0.00 0.00 100 956.9
20260831143650 73 272 9.0 22.0 0.00 0.00 0.00 100 956.9
20260831143548 72 271 8.0 22.0 0.00 0.00 0.00 100 956.9
20260831143345 73 258 7.0 22.0 0.00 0.00 0.00 100 956.9
20260831143141 73 251 4.0 17.0 0.00 0.00 0.00 100 956.9
20260831143041 73 251 5.0 17.0 0.00 0.00 0.00 100 956.8
20260831142939 73 249 4.0 17.0 0.00 0.00 0.00 100 956.9
20260831142735 73 261 5.0 17.0 0.00 0.00 0.00 100 957.0
20260831142532 72 259 6.0 15.0 0.00 0.00 0.00 100 957.0
20260831142431 73 246 5.0 13.0 0.00 0.00 0.00 100 957.0
20260831142327 73 245 5.0 13.0 0.00 0.00 0.00 100 957.0
20260831142124 72 247 4.0 13.0 0.00 0.00 0.00 100 956.9
20260831141921 72 257 4.0 13.0 0.00 0.00 0.00 100 956.8
20260831141717 71 253 6.0 16.0 0.00 0.00 0.00 100 957.0
20260831141515 71 245 6.0 16.0 0.00 0.00 0.00 100 956.9
20260831141312 71 251 7.0 17.0 0.00 0.00 0.00 100 956.8
20260831141210 71 251 7.0 17.0 0.00 0.00 0.00 100 956.8
20260831141108 71 254 7.0 17.0 0.00 0.00 0.00 100 956.8
20260831140904 71 250 5.0 17.0 0.00 0.00 0.00 100 957.0
20260831140701 71 258 7.0 18.0 0.00 0.00 0.00 100 956.9
20260831140600 71 262 8.0 24.0 0.00 0.00 0.00 100 956.9
20260831140458 71 259 7.0 24.0 0.00 0.00 0.00 100 957.0
20260831140254 71 255 6.0 20.0 0.00 0.00 0.00 100 957.0
20260831140051 71 266 9.0 20.0 0.00 0.00 0.00 100 957.0
20260831135950 71 266 10.0 20.0 0.00 0.00 0.00 100 956.8
20260831135847 71 267 10.0 22.0 0.00 0.00 0.00 100 957.0
20260831135644 71 267 8.0 22.0 0.00 0.00 0.00 100 956.9
20260831135441 71 267 8.0 16.0 0.00 0.00 0.00 100 956.9
20260831135340 71 267 8.0 16.0 0.00 0.00 0.00 100 956.9
20260831135238 71 273 10.0 20.0 0.00 0.00 0.00 100 956.9
20260831135035 71 280 11.0 20.0 0.00 0.00 0.00 100 956.9
20260831134832 71 281 13.0 21.0 0.00 0.00 0.00 100 956.6
20260831134731 71 282 13.0 21.0 0.00 0.00 0.00 100 956.8
20260831134629 71 278 14.0 24.0 0.00 0.00 0.00 100 956.6
20260831134426 71 285 18.0 29.0 0.00 0.00 0.00 100 956.6
20260831134223 71 289 18.0 29.0 0.00 0.00 0.00 100 956.7
20260831134122 71 291 17.0 29.0 0.00 0.00 0.00 100 956.5
20260831134020 71 291 16.0 29.0 0.00 0.00 0.00 100 956.7
20260831133817 71 297 18.0 29.0 0.00 0.00 0.00 100 956.8
20260831133613 71 301 17.0 27.0 0.00 0.00 0.00 100 956.5
20260831133513 71 300 17.0 27.0 0.00 0.00 0.00 100 956.6
20260831133410 72 299 16.0 24.0 0.00 0.00 0.00 100 956.5
20260831133207 73 298 15.0 23.0 0.00 0.00 0.00 100 956.4
20260831133004 73 299 13.0 18.0 0.00 0.00 0.00 100 956.7
20260831132904 74 299 12.0 18.0 0.00 0.00 0.00 100 956.6
20260831132801 74 301 10.0 18.0 0.00 0.00 0.00 100 956.7
20260831132558 74 298 7.0 14.0 0.00 0.00 0.00 100 956.6
20260831132355 75 297 7.0 12.0 0.00 0.00 0.00 100 956.7
20260831132254 75 296 7.0 12.0 0.00 0.00 0.00 100 956.8
20260831132151 75 288 8.0 12.0 0.00 0.00 0.00 100 956.7
20260831131948 76 277 8.0 18.0 0.00 0.00 0.00 100 956.7
20260831131745 77 264 5.0 18.0 0.00 0.00 0.00 100 956.7
20260831131644 79 255 4.0 18.0 0.00 0.00 0.00 100 956.7
20260831131542 79 250 2.0 9.0 0.00 0.00 0.00 100 956.7
20260831131340 79 0 1.0 9.0 0.00 0.00 0.00 100 956.7
20260831131137 79 246 2.0 11.0 0.00 0.00 0.00 100 956.7
20260831131036 79 233 2.0 11.0 0.00 0.00 0.00 100 956.8
20260831130934 79 235 2.0 11.0 0.00 0.00 0.00 100 956.8
20260831130730 79 216 2.0 9.0 0.00 0.00 0.00 100 956.8
20260831130527 79 228 2.0 10.0 0.00 0.00 0.00 100 956.8
20260831130426 79 223 2.0 10.0 0.00 0.00 0.00 100 956.7
20260831130324 79 240 2.0 10.0 0.00 0.00 0.00 100 956.8
20260831130109 79 216 2.0 8.0 0.00 0.00 0.00 100 956.8
20260831125905 79 218 2.0 11.0 0.00 0.00 0.00 100 956.8
20260831125804 79 220 2.0 11.0 0.00 0.00 0.00 100 956.9
20260831125701 79 221 2.0 11.0 0.00 0.00 0.00 100 956.9
20260831125458 79 218 2.0 6.0 0.00 0.00 0.00 100 956.9
20260831125255 79 213 2.0 9.0 0.00 0.00 0.00 100 956.9
20260831125155 79 214 2.0 9.0 0.00 0.00 0.00 100 957.0
20260831125052 79 215 2.0 9.0 0.00 0.00 0.00 100 956.9
20260831124849 79 230 2.0 9.0 0.00 0.00 0.00 100 956.9
20260831124646 79 228 2.0 11.0 0.00 0.00 0.00 100 956.9
20260831124545 79 221 2.0 11.0 0.00 0.00 0.00 100 956.8
20260831124443 79 211 2.0 11.0 0.00 0.00 0.00 100 956.9
20260831124240 79 222 3.0 17.0 0.00 0.00 0.00 100 956.9
20260831124037 79 233 3.0 17.0 0.00 0.00 0.00 100 956.9
20260831123834 80 0 2.0 10.0 0.00 0.00 0.00 100 956.8
20260831123631 80 228 3.0 18.0 0.00 0.00 0.00 100 956.7
20260831123428 80 223 3.0 18.0 0.00 0.00 0.00 100 956.9
20260831123327 80 224 3.0 18.0 0.00 0.00 0.00 100 956.8
20260831123224 80 235 3.0 12.0 0.00 0.00 0.00 100 956.8
20260831123021 80 236 3.0 10.0 0.00 0.00 0.00 100 956.9
20260831122818 80 240 3.0 11.0 0.00 0.00 0.00 100 956.8
20260831122717 80 241 3.0 12.0 0.00 0.00 0.00 100 956.8
20260831122615 80 240 4.0 12.0 0.00 0.00 0.00 100 956.7
20260831122411 80 233 4.0 20.0 0.00 0.00 0.00 100 956.7
20260831122208 81 233 3.0 20.0 0.00 0.00 0.00 100 956.8
20260831122005 80 244 2.0 12.0 0.00 0.00 0.00 100 956.7
20260831121802 80 0 1.0 8.0 0.00 0.00 0.00 100 956.7
20260831121559 80 225 2.0 12.0 0.00 0.00 0.00 100 956.7
20260831121457 80 209 2.0 12.0 0.00 0.00 0.00 100 956.7
20260831121355 80 211 2.0 12.0 0.00 0.00 0.00 100 956.6
20260831121153 80 226 3.0 14.0 0.00 0.00 0.00 100 956.6
20260831120949 80 240 4.0 16.0 0.00 0.00 0.00 100 956.7
20260831120849 80 238 3.0 16.0 0.00 0.00 0.00 100 956.7
20260831120746 80 232 3.0 16.0 0.00 0.00 0.00 100 956.7
20260831120543 80 239 3.0 16.0 0.00 0.00 0.00 100 956.7
20260831120340 80 245 4.0 16.0 0.00 0.00 0.00 100 956.7
20260831120240 80 240 3.0 16.0 0.00 0.00 0.00 100 956.5
20260831120137 80 235 3.0 13.0 0.00 0.00 0.00 100 956.8
20260831115933 81 228 2.0 10.0 0.00 0.00 0.00 100 956.7
20260831115730 81 231 3.0 10.0 0.00 0.00 0.00 100 956.7
20260831115629 81 231 2.0 10.0 0.00 0.00 0.00 100 956.7
20260831115527 81 225 2.0 10.0 0.00 0.00 0.00 100 956.7
20260831115323 81 217 2.0 10.0 0.00 0.00 0.00 100 956.8
20260831115121 81 218 2.0 10.0 0.00 0.00 0.00 100 956.8
20260831115020 81 212 2.0 10.0 0.00 0.00 0.00 100 956.7
20260831114918 81 199 2.0 13.0 0.00 0.00 0.00 100 956.7
20260831114715 81 179 3.0 13.0 0.00 0.00 0.00 100 956.8
20260831114511 81 179 3.0 13.0 0.00 0.00 0.00 100 956.5
20260831114410 81 175 2.0 13.0 0.00 0.00 0.00 100 956.7
20260831114308 81 175 2.0 9.0 0.00 0.00 0.00 100 956.7
20260831114105 81 173 2.0 7.0 0.00 0.00 0.00 100 956.6
20260831113902 80 180 2.0 11.0 0.00 0.00 0.00 100 956.7
20260831113801 80 179 3.0 11.0 0.00 0.00 0.00 100 956.7
20260831113659 80 182 3.0 11.0 0.00 0.00 0.00 100 956.7
20260831113456 80 200 2.0 10.0 0.00 0.00 0.00 100 956.8
20260831113253 81 211 2.0 7.0 0.00 0.00 0.00 100 956.9
20260831113151 81 205 2.0 7.0 0.00 0.00 0.00 100 956.7
20260831113049 81 205 2.0 7.0 0.00 0.00 0.00 100 956.8
20260831112846 81 214 2.0 8.0 0.00 0.00 0.00 100 956.8
20260831112643 82 210 2.0 8.0 0.00 0.00 0.00 100 956.7
20260831112542 83 205 2.0 10.0 0.00 0.00 0.00 100 956.8
20260831112439 83 206 2.0 10.0 0.00 0.00 0.00 100 956.8
20260831112236 83 239 4.0 18.0 0.00 0.00 0.00 100 956.9
20260831112033 82 253 4.0 18.0 0.00 0.00 0.00 100 957.0
20260831111932 82 263 3.0 18.0 0.00 0.00 0.00 100 956.8
20260831111830 84 264 2.0 15.0 0.00 0.00 0.00 100 957.0
20260831111627 83 184 2.0 9.0 0.00 0.00 0.00 100 957.1
20260831111423 83 180 3.0 12.0 0.00 0.00 0.00 100 957.0
20260831111322 83 187 3.0 12.0 0.00 0.00 0.00 100 957.0
20260831111220 82 183 3.0 12.0 0.00 0.00 0.00 100 957.0
20260831111017 82 152 4.0 16.0 0.00 0.00 0.00 100 956.9
20260831110813 81 146 2.0 16.0 0.00 0.00 0.00 100 956.9
20260831110610 80 186 2.0 5.0 0.00 0.00 0.00 100 957.0
20260831110407 80 204 2.0 5.0 0.00 0.00 0.00 100 957.1
20260831110204 79 207 2.0 7.0 0.00 0.00 0.00 100 957.1
20260831110001 79 236 2.0 8.0 0.00 0.00 0.00 100 957.1
20260831105758 79 249 2.0 8.0 0.00 0.00 0.00 100 957.1
20260831105555 79 221 3.0 8.0 0.00 0.00 0.00 100 957.2
20260831105455 79 202 2.0 8.0 0.00 0.00 0.00 100 957.2
20260831105352 79 174 2.0 8.0 0.00 0.00 0.00 100 957.2
20260831105149 79 171 1.0 5.0 0.00 0.00 0.00 100 957.2
20260831104945 79 193 1.0 5.0 0.00 0.00 0.00 100 957.1
20260831104845 79 193 2.0 7.0 0.00 0.00 0.00 100 957.1
20260831104742 79 199 2.0 7.0 0.00 0.00 0.00 100 957.3
20260831104539 78 211 2.0 7.0 0.00 0.00 0.00 100 957.2
20260831104336 78 234 2.0 7.0 0.00 0.00 0.00 100 957.1
20260831104235 79 230 2.0 5.0 0.00 0.00 0.00 100 957.2
20260831104132 78 222 2.0 7.0 0.00 0.00 0.00 100 957.3
20260831103929 78 232 2.0 8.0 0.00 0.00 0.00 100 957.1
20260831103725 78 226 2.0 8.0 0.00 0.00 0.00 100 957.2
20260831103625 78 213 2.0 8.0 0.00 0.00 0.00 100 957.2
20260831103523 78 203 2.0 11.0 0.00 0.00 0.00 100 957.3
20260831103319 78 214 2.0 11.0 0.00 0.00 0.00 100 957.2
20260831103116 77 213 2.0 6.0 0.00 0.00 0.00 100 957.3
20260831103016 77 211 2.0 6.0 0.00 0.00 0.00 100 957.4
20260831102913 77 208 2.0 6.0 0.00 0.00 0.00 100 957.4
20260831102710 77 210 1.0 6.0 0.00 0.00 0.00 100 957.5
20260831102507 77 224 1.0 7.0 0.00 0.00 0.00 100 957.4
20260831102406 77 220 2.0 7.0 0.00 0.00 0.00 100 957.4
20260831102306 77 218 2.0 7.0 0.00 0.00 0.00 100 957.4
20260831102051 77 222 2.0 8.0 0.00 0.00 0.00 100 957.4
20260831101848 77 233 2.0 8.0 0.00 0.00 0.00 100 957.4
20260831101747 77 239 2.0 8.0 0.00 0.00 0.00 100 957.4
20260831101645 77 0 1.0 8.0 0.00 0.00 0.00 100 957.4
20260831101441 77 0 1.0 6.0 0.00 0.00 0.00 100 957.3
20260831101238 77 0 2.0 10.0 0.00 0.00 0.00 100 957.4
20260831101137 77 238 2.0 12.0 0.00 0.00 0.00 100 957.4
20260831101035 76 229 2.0 12.0 0.00 0.00 0.00 100 957.4
20260831100831 76 225 2.0 12.0 0.00 0.00 0.00 100 957.3
20260831100628 77 215 2.0 7.0 0.00 0.00 0.00 100 957.4
20260831100527 77 221 2.0 7.0 0.00 0.00 0.00 100 957.4
20260831100424 77 221 2.0 10.0 0.00 0.00 0.00 100 957.4
20260831100221 77 221 2.0 10.0 0.00 0.00 0.00 100 957.4
20260831100018 77 228 1.0 6.0 0.00 0.00 0.00 100 957.4
20260831095917 77 223 1.0 6.0 0.00 0.00 0.00 100 957.4
20260831095814 77 227 2.0 12.0 0.00 0.00 0.00 100 957.4
20260831095611 77 233 2.0 12.0 0.00 0.00 0.00 100 957.4
20260831095408 78 234 2.0 12.0 0.00 0.00 0.00 100 957.4
20260831095307 78 219 2.0 10.0 0.00 0.00 0.00 100 957.4
20260831095204 78 230 2.0 10.0 0.00 0.00 0.00 100 957.4
20260831095001 78 227 3.0 10.0 0.00 0.00 0.00 100 957.4
20260831094758 78 235 2.0 9.0 0.00 0.00 0.00 100 957.5
20260831094658 78 237 2.0 8.0 0.00 0.00 0.00 100 957.5
20260831094555 78 235 2.0 8.0 0.00 0.00 0.00 100 957.4
20260831094351 78 237 2.0 8.0 0.00 0.00 0.00 100 957.5
20260831094149 78 228 4.0 19.0 0.00 0.00 0.00 100 957.4
20260831094048 79 243 5.0 22.0 0.00 0.00 0.00 100 957.3
20260831093946 79 242 5.0 22.0 0.00 0.00 0.00 100 957.3
20260831093743 80 244 4.0 22.0 0.00 0.00 0.00 100 957.3
20260831093540 82 221 2.0 12.0 0.00 0.00 0.00 100 957.2
20260831093439 82 219 2.0 12.0 0.00 0.00 0.00 100 957.3
20260831093336 82 220 3.0 12.0 0.00 0.00 0.00 100 957.3
20260831093133 82 228 2.0 11.0 0.00 0.00 0.00 100 957.3
20260831092930 81 198 3.0 18.0 0.00 0.00 0.00 100 957.4
20260831092829 81 188 3.0 18.0 0.00 0.00 0.00 100 957.4
20260831092727 81 192 3.0 18.0 0.00 0.00 0.00 100 957.3
20260831092524 81 189 3.0 17.0 0.00 0.00 0.00 100 957.2
20260831092321 80 189 4.0 17.0 0.00 0.00 0.00 100 957.2
20260831092118 80 180 4.0 14.0 0.00 0.00 0.00 100 957.2
20260831091914 80 179 4.0 14.0 0.00 0.00 0.00 100 957.3
20260831091712 80 193 4.0 13.0 0.00 0.00 0.00 100 957.3
20260831091611 80 197 3.0 12.0 0.00 0.00 0.00 100 957.2
20260831091508 80 187 4.0 15.0 0.00 0.00 0.00 100 957.2
20260831091305 80 184 6.0 23.0 0.00 0.00 0.00 100 957.2
20260831091102 80 188 5.0 23.0 0.00 0.00 0.00 100 957.2
20260831091002 80 189 4.0 23.0 0.00 0.00 0.00 100 957.3
20260831090859 80 198 4.0 14.0 0.00 0.00 0.00 100 957.2
20260831090656 80 199 3.0 17.0 0.00 0.00 0.00 100 957.2
20260831090453 80 186 4.0 17.0 0.00 0.00 0.00 100 957.2
20260831090352 80 184 4.0 17.0 0.00 0.00 0.00 100 957.3
20260831090250 80 188 4.0 16.0 0.00 0.00 0.00 100 957.2
20260831090047 80 188 3.0 12.0 0.00 0.00 0.00 100 957.2
20260831085844 79 185 4.0 14.0 0.00 0.00 0.00 100 957.2